GW3329 Weather Reports


time (UTC)temp
C
wind
direction
speed
KPH
gust
KPH
rain 1hr
cm
rain 24hr
cm
rain mn
cm
humidity
%
barometer
mb
20260504045802 12 162 4.8 12.9 0.00 0.00 0.00 86 1019.1
20260504045256 12 236 3.2 9.7 0.00 0.00 0.00 86 1018.8
20260504044754 12 210 3.2 9.7 0.00 0.00 0.00 85 1018.9
20260504044252 12 153 0.0 4.8 0.00 0.00 0.00 85 1018.7
20260504043749 12 161 0.0 1.6 0.00 0.00 0.00 85 1018.4
20260504043245 12 237 4.8 6.4 0.00 0.00 0.00 85 1018.3
20260504042743 12 179 1.6 3.2 0.00 0.00 0.00 85 1018.5
20260504042240 12 195 3.2 6.4 0.00 0.00 0.00 85 1018.2
20260504041736 12 178 4.8 4.8 0.00 0.00 0.00 85 1018.4
20260504041232 12 155 0.0 1.6 0.00 0.00 0.00 84 1018.5
20260504040728 12 182 4.8 4.8 0.00 0.00 0.00 84 1018.0
20260504040226 12 197 1.6 4.8 0.00 0.00 0.00 83 1018.1
20260504035722 12 178 6.4 9.7 0.00 0.00 0.00 83 1018.0
20260504035219 12 186 3.2 4.8 0.00 0.00 0.00 83 1018.0
20260504034717 12 182 3.2 6.4 0.00 0.00 0.00 82 1018.0
20260504034214 12 232 1.6 9.7 0.00 0.00 0.00 83 1017.9
20260504033711 12 193 3.2 3.2 0.00 0.00 0.00 83 1018.0
20260504033208 12 153 1.6 3.2 0.00 0.00 0.00 84 1018.0
20260504032705 12 159 3.2 4.8 0.00 0.00 0.00 85 1017.8
20260504032203 13 175 1.6 6.4 0.00 0.00 0.00 85 1017.8
20260504031659 13 168 1.6 1.6 0.00 0.00 0.00 85 1017.9
20260504031155 13 168 0.0 4.8 0.00 0.00 0.00 85 1017.6
20260504030652 13 201 3.2 6.4 0.00 0.00 0.00 85 1017.6
20260504030149 13 174 3.2 3.2 0.00 0.00 0.00 85 1017.7
20260504025646 13 166 3.2 4.8 0.00 0.00 0.00 85 1017.8
20260504025143 13 179 1.6 3.2 0.00 0.00 0.00 85 1017.5
20260504024640 13 203 4.8 4.8 0.00 0.00 0.00 85 1017.6
20260504024136 13 166 1.6 6.4 0.00 0.00 0.00 84 1017.4
20260504023633 13 175 1.6 3.2 0.00 0.00 0.00 84 1017.3
20260504023130 13 203 1.6 6.4 0.00 0.00 0.00 84 1017.8
20260504022626 13 180 1.6 6.4 0.00 0.00 0.00 84 1017.5
20260504022122 13 206 3.2 11.3 0.00 0.00 0.00 83 1017.5
20260504021620 13 180 4.8 6.4 0.00 0.00 0.00 83 1017.2
20260504021116 13 205 3.2 6.4 0.00 0.00 0.00 83 1017.3
20260504020613 13 207 0.0 4.8 0.00 0.00 0.00 83 1017.3
20260504020109 13 220 4.8 4.8 0.00 0.00 0.00 82 1017.5
20260504015606 13 289 3.2 6.4 0.00 0.00 0.00 82 1017.5
20260504015102 13 308 3.2 11.3 0.00 0.00 0.00 82 1017.5
20260504014558 13 250 1.6 11.3 0.00 0.00 0.00 83 1017.2
20260504014055 13 182 1.6 9.7 0.00 0.00 0.00 83 1017.1
20260504013553 13 213 4.8 6.4 0.00 0.00 0.00 82 1017.0
20260504013050 14 217 3.2 9.7 0.00 0.00 0.00 79 1016.9
20260504012547 14 201 3.2 9.7 0.00 0.00 0.00 78 1017.3
20260504012045 14 209 1.6 11.3 0.00 0.00 0.00 77 1017.0
20260504011542 14 242 3.2 4.8 0.00 0.00 0.00 75 1017.1
20260504011038 14 305 3.2 16.1 0.00 0.00 0.00 74 1017.0
20260504010533 15 86 1.6 4.8 0.00 0.00 0.00 72 1017.2
20260504010030 15 153 3.2 12.9 0.00 0.00 0.00 71 1017.1
20260504005526 15 28 1.6 14.5 0.00 0.00 0.00 70 1016.9
20260504005024 15 194 3.2 4.8 0.00 0.00 0.00 69 1016.9
20260504004522 15 208 0.0 12.9 0.00 0.00 0.00 68 1016.9
20260504004019 16 212 1.6 6.4 0.00 0.00 0.00 67 1016.6
20260504003515 16 207 3.2 4.8 0.00 0.00 0.00 67 1016.5
20260504003012 16 251 4.8 9.7 0.00 0.00 0.00 67 1016.6
20260504002509 16 5 1.6 3.2 0.00 0.00 0.00 68 1016.5
20260504002006 16 172 3.2 3.2 0.00 0.00 0.00 68 1016.7
20260504001504 16 261 6.4 12.9 0.00 0.00 0.00 67 1016.5
20260504001000 16 113 3.2 3.2 0.00 0.00 0.00 66 1016.7
20260504000457 16 231 4.8 6.4 0.00 0.00 0.00 67 1016.7
20260503235954 17 216 3.2 6.4 0.00 0.00 0.00 67 1016.6
20260503235452 17 189 1.6 6.4 0.00 0.00 0.00 67 1016.5
20260503234949 17 26 3.2 3.2 0.00 0.00 0.00 67 1016.6
20260503234446 17 242 1.6 3.2 0.00 0.00 0.00 67 1016.6
20260503233944 17 289 4.8 6.4 0.00 0.00 0.00 66 1016.5
20260503233440 17 161 1.6 3.2 0.00 0.00 0.00 66 1016.3
20260503232937 17 214 1.6 3.2 0.00 0.00 0.00 65 1016.5
20260503232434 17 227 1.6 9.7 0.00 0.00 0.00 65 1016.7
20260503231932 17 283 3.2 9.7 0.00 0.00 0.00 63 1016.9
20260503231429 17 209 6.4 9.7 0.00 0.00 0.00 63 1016.6
20260503230925 17 224 6.4 6.4 0.00 0.00 0.00 64 1016.9
20260503230421 17 258 3.2 11.3 0.00 0.00 0.00 65 1017.0
20260503225920 16 281 3.2 3.2 0.00 0.00 0.00 68 1017.0
20260503225416 16 165 3.2 6.4 0.00 0.00 0.00 68 1016.8
20260503224912 16 48 1.6 4.8 0.00 0.00 0.00 68 1016.8
20260503224409 16 183 1.6 3.2 0.00 0.00 0.00 67 1016.9
20260503223907 16 189 3.2 6.4 0.00 0.00 0.00 68 1017.0
20260503223405 16 24 3.2 6.4 0.00 0.00 0.00 68 1017.1
20260503222859 16 210 4.8 11.3 0.00 0.00 0.00 68 1017.3
20260503222359 16 167 3.2 6.4 0.00 0.00 0.00 67 1017.5
20260503221856 16 162 3.2 6.4 0.00 0.00 0.00 68 1017.5
20260503221355 16 232 1.6 12.9 0.00 0.00 0.00 67 1017.3
20260503220850 17 153 3.2 6.4 0.00 0.00 0.00 66 1017.4
20260503220347 17 159 0.0 4.8 0.00 0.00 0.00 67 1017.5
20260503215844 17 215 1.6 6.4 0.00 0.00 0.00 68 1017.6
20260503215341 17 130 0.0 11.3 0.00 0.00 0.00 67 1017.5
20260503214839 16 153 1.6 6.4 0.00 0.00 0.00 68 1017.6
20260503214336 16 162 0.0 6.4 0.00 0.00 0.00 68 1017.4
20260503213833 16 51 1.6 6.4 0.00 0.00 0.00 69 1017.6
20260503213331 16 127 0.0 3.2 0.00 0.00 0.00 69 1017.6
20260503212828 16 96 0.0 4.8 0.00 0.00 0.00 69 1017.7
20260503212326 16 229 3.2 3.2 0.00 0.00 0.00 67 1017.6
20260503211823 16 80 0.0 1.6 0.00 0.00 0.00 69 1017.6
20260503211319 16 60 1.6 6.4 0.00 0.00 0.00 69 1017.6
20260503210819 15 98 1.6 1.6 0.00 0.00 0.00 71 1017.7
20260503210317 15 79 1.6 4.8 0.00 0.00 0.00 71 1017.8
20260503205812 15 273 1.6 4.8 0.00 0.00 0.00 71 1017.8
20260503205309 15 108 1.6 1.6 0.00 0.00 0.00 72 1017.8
20260503204805 15 137 1.6 1.6 0.00 0.00 0.00 73 1018.0
20260503204303 15 215 3.2 6.4 0.00 0.00 0.00 73 1017.8
20260503203800 15 215 0.0 9.7 0.00 0.00 0.00 75 1017.8
20260503203257 15 287 1.6 6.4 0.00 0.00 0.00 74 1017.8
20260503202754 15 35 1.6 3.2 0.00 0.00 0.00 75 1017.6
20260503202252 15 67 1.6 4.8 0.00 0.00 0.00 76 1017.7
20260503201750 15 265 3.2 4.8 0.00 0.00 0.00 76 1017.8
20260503201247 15 270 4.8 11.3 0.00 0.00 0.00 77 1017.8
20260503200744 15 294 9.7 12.9 0.00 0.00 0.00 77 1017.9
20260503200240 15 199 1.6 3.2 0.00 0.00 0.00 77 1017.9
20260503195737 15 241 6.4 9.7 0.00 0.00 0.00 77 1017.8
20260503195234 15 222 8.0 11.3 0.00 0.00 0.00 76 1018.0
20260503194732 16 157 0.0 3.2 0.00 0.00 0.00 76 1018.0
20260503194227 15 218 1.6 9.7 0.00 0.00 0.00 75 1018.0
20260503193723 15 305 1.6 6.4 0.00 0.00 0.00 76 1018.0
20260503193219 15 79 0.0 6.4 0.00 0.00 0.00 76 1017.9
20260503192715 15 167 3.2 4.8 0.00 0.00 0.00 76 1017.9
20260503192210 15 209 1.6 4.8 0.00 0.00 0.00 75 1018.1
20260503191708 16 301 6.4 11.3 0.00 0.00 0.00 75 1018.1
20260503191205 16 232 3.2 6.4 0.00 0.00 0.00 74 1018.0
20260503190701 16 349 3.2 3.2 0.00 0.00 0.00 70 1017.9
20260503190158 16 200 1.6 3.2 0.00 0.00 0.00 70 1017.9
20260503185655 16 356 1.6 3.2 0.00 0.00 0.00 71 1018.0
20260503185150 16 320 1.6 4.8 0.00 0.00 0.00 72 1018.1
20260503184645 16 74 0.0 3.2 0.00 0.00 0.00 72 1017.9
20260503184142 16 98 1.6 3.2 0.00 0.00 0.00 72 1018.2
20260503183638 16 148 0.0 1.6 0.00 0.00 0.00 71 1017.9
20260503183136 16 119 3.2 4.8 0.00 0.00 0.00 73 1018.1
20260503182634 15 132 0.0 3.2 0.00 0.00 0.00 75 1018.3
20260503182132 15 145 1.6 1.6 0.00 0.00 0.00 75 1018.2
20260503181629 15 113 1.6 4.8 0.00 0.00 0.00 76 1018.3
20260503181126 15 149 4.8 9.7 0.00 0.00 0.00 75 1018.3
20260503180622 15 239 3.2 3.2 0.00 0.00 0.00 76 1018.1
20260503180120 15 177 1.6 1.6 0.00 0.00 0.00 77 1018.4
20260503175617 15 70 0.0 0.0 0.00 0.00 0.00 78 1018.4
20260503175114 15 114 0.0 3.2 0.00 0.00 0.00 79 1018.3
20260503174611 15 110 1.6 3.2 0.00 0.00 0.00 79 1018.5
20260503174108 15 106 0.0 0.0 0.00 0.00 0.00 78 1018.4
20260503173603 15 73 0.0 1.6 0.00 0.00 0.00 79 1018.3
20260503173059 15 97 0.0 1.6 0.00 0.00 0.00 79 1018.5
20260503172551 15 93 0.0 1.6 0.00 0.00 0.00 79 1018.4
20260503172048 15 196 0.0 1.6 0.00 0.00 0.00 79 1018.3
20260503171544 14 181 0.0 1.6 0.00 0.00 0.00 80 1018.4
20260503171042 14 221 1.6 3.2 0.00 0.00 0.00 80 1018.5
20260503170538 13 185 0.0 1.6 0.00 0.00 0.00 81 1018.3
20260503150931 13 182 4.8 6.4 0.00 0.00 0.00 84 1018.0
20260503150427 13 149 0.0 0.0 0.00 0.00 0.00 85 1017.7
20260503131320 12 167 0.0 0.0 0.00 0.00 0.00 97 1016.4
20260503130818 12 169 0.0 0.0 0.00 0.00 0.00 97 1016.4
20260503130315 12 172 0.0 0.0 0.00 0.00 0.00 98 1016.4
20260503110709 12 181 0.0 0.0 0.00 0.00 0.00 98 1016.7
20260503110206 12 187 0.0 0.0 0.00 0.00 0.00 98 1016.8
20260503100132 12 128 0.0 0.0 0.00 0.00 0.00 98 1016.4
20260503081522 12 183 0.0 3.2 0.00 0.00 0.00 96 1017.2
20260503081019 12 171 0.0 3.2 0.00 0.00 0.00 96 1017.0
20260503080515 13 181 0.0 1.6 0.00 0.00 0.00 96 1017.0
20260503072449 13 165 0.0 3.2 0.00 0.00 0.00 96 1017.0
20260503071946 13 219 1.6 9.7 0.00 0.00 0.00 96 1016.7
20260503071443 13 200 1.6 1.6 0.00 0.00 0.00 95 1016.7
20260503070938 13 162 0.0 3.2 0.00 0.00 0.00 95 1016.8
20260503070436 13 177 0.0 0.0 0.00 0.00 0.00 95 1016.4
20260503054849 13 187 0.0 3.2 0.00 0.00 0.00 95 1016.7
20260503054345 13 246 1.6 3.2 0.00 0.00 0.00 95 1016.5
20260503053843 13 166 0.0 1.6 0.00 0.00 0.00 95 1016.8
20260503053341 13 168 0.0 1.6 0.00 0.00 0.00 95 1016.6
20260503052837 13 185 0.0 3.2 0.00 0.00 0.00 95 1016.5
20260503052334 13 170 0.0 1.6 0.00 0.00 0.00 95 1016.7
20260503051831 13 186 1.6 3.2 0.00 0.00 0.00 94 1016.8
20260503051327 13 161 0.0 4.8 0.00 0.00 0.00 94 1016.9
20260503050824 13 212 0.0 0.0 0.00 0.00 0.00 94 1016.5
20260503050320 13 142 0.0 0.0 0.00 0.00 0.00 95 1016.6